Время (UTC), дата Ветер
(°,м/с) 
Видим.   Явления Облачность Т
(°С)
Тd
(°С)
f(%) Тe
(°С)
Pmin
(гПа)
dP
(гПа)
Po
(мм)
O2
(г/м3)
Тmin Tmax R s Состояние
почвы
00 01.05.13 100 (В) >10 км    3/0 средняя 
[Ac trans]
+12.7 +11 89 +16  1024.6  -0.3  728  278           
03 01.05.13 110 (В) >10 км    4/0 верхняя 
[Ci fib]
+12.8 +11.6 92 +17  1025.1  0.5  729  278  +11.5        сухая 
06 01.05.13 110 (В) >10 км    3/0 верхняя 
[Ci fib]
+19.1 +13 68 +25  1024.1  0.2  729  272           
09 01.05.13 130 (ЮВ) 6{11}  >10 км    3/0 верхняя 
[Ci fib]
+23.8 +11.3 45 +27  1022  -1.3  728  268           
12 01.05.13 110 (В) 6{11}  >10 км    ясно 
+25.3 +10.9 40 +28  1019.9  -1.7  727  266           
15 01.05.13 110 (В) 6{10}  >10 км    ясно 
+23 +11 47 +26  1019  -1.2  726  268    +25.5       
18 01.05.13 110 (В) >10 км    ясно 
+15.8 +11.1 74 +19  1019.9  -0.3  726  274           
21 01.05.13 130 (ЮВ) >10 км    ясно 
+13.7 +10.3 80 +15  1019.4  -0.9  725  276           
00 02.05.13 110 (В) >10 км    ясно 
+11.8 +9.3 85 +13  1019.2  -0.5  724  278           
03 02.05.13 150 (ЮВ) >10 км    ясно 
+12.3 +9.9 85 +15  1019.2  -0.1  725  277  +10.6        сухая 
06 02.05.13 130 (ЮВ) >10 км    ясно 
+18.9 +10.1 57 +21  1017.8  -0.2  724  271           
09 02.05.13 100 (В) >10 км    ясно 
+23.8 +9.2 39 +25  1016.4  -0.5  724  267           
12 02.05.13 060 (СВ) >10 км    ясно 
+25.4 +9.7 37 +27  1015.1  -0.9  723  265           
15 02.05.13 070 (В) >10 км    ясно 
+22.4 +10.5 47 +25  1015.8  -0.9  723  267    +25.5       
18 02.05.13 100 (В) >10 км    ясно 
+15.5 +8.9 65 +15  1018  0.9  724  274           
21 02.05.13 080 (В) >10 км    ясно 
+12.7 +8.3 75 +12  1018.6  724  277           
00 03.05.13 130 (ЮВ) >10 км    ясно 
+12.4 +7.5 72 +12  1018.2  -0.4  724  278           
03 03.05.13 150 (ЮВ) >10 км    3/0 верхняя 
[Ci fib]
+12.9 +7.2 68 +13  1018  0.1  724  277  +7.2        сухая 
06 03.05.13 090 (В) >10 км    3/0 верхняя 
[Ci sp]
+18.2 +5.6 44 +18  1017.6  0.5  724  273           
09 03.05.13 100 (В) 8-11{12}  >10 км    3/0 верхняя 
[Ci fib]
+22.2 +6.7 37 +22  1016.4  -0.5  724  269           
12 03.05.13 080 (В) 8-12{12}  >10 км    3/0 верхняя 
[Ci fib]
+24.2 +8.3 36 +24  1015  -1  723  266           
15 03.05.13 100 (В) 7{12}  >10 км    8/0 верхняя 
[Ci fib]
+23 +8.7 40 +23  1014.9  -0.2  723  267    +24.7       
18 03.05.13 090 (В) 5{10}  >10 км    3/0 верхняя 
[Ci fib]
+16.8 +6.4 50 +17  1016.9  0.7  723  274           
21 03.05.13 110 (В) >10 км    3/0 верхняя 
[Ci fib]
+13.6 +7.4 66 +13  1016.7  -0.7  723  276           
00 04.05.13 120 (ЮВ) >10 км    3/0 верхняя 
[Ci fib]
+11.4 +6.7 73 +11  1016.6  -0.5  723  278           
03 04.05.13 130 (ЮВ) >10 км    3/0 верхняя 
[Ci fib]
+12.4 +6.2 66 +12  1016.1  -0.3  722  277  +9.8        сухая 
06 04.05.13 120 (ЮВ) >10 км    ясно 
+18.6 +6.8 46 +19  1015.3  0.3  723  271           
09 04.05.13 090 (В) 6-10{11}  >10 км    ясно 
+23.8 +9.1 39 +25  1013.7  -0.6  722  266           
12 04.05.13 120 (ЮВ) 6{11}  >10 км    3/0 верхняя 
[Ci fib]
+25.8 +7.7 32 +26  1012.4  -0.9  721  264           
15 04.05.13 100 (В) >10 км    3/0 верхняя 
[Ci fib]
+24 +11.6 46 +28  1012.2  -0.4  721  265    +26.1       
18 04.05.13 130 (ЮВ) >10 км    4/0 верхняя 
[Ci fib]
+17.9 +9.6 58 +19  1014.1  0.7  722  271           
21 04.05.13 140 (ЮВ) >10 км    3/0 верхняя 
[Ci fib]
+15.7 +9.2 65 +17  1014.2  -0.3  721  273           
00 05.05.13 160 (Ю) >10 км    3/0 верхняя 
[Ci fib]
+12.2 +6.8 70 +13  1014.3  -0.6  721  277           
03 05.05.13 240 (ЮЗ) >10 км    3/0 верхняя 
[Ci fib]
+14.3 +10.1 76 +17  1013.7  -0.1  721  274  +10.1        сухая 
06 05.05.13 350 (С) >10 км    6/0 верхняя 
[Ci fib]
+22.5 +10.8 48 +26  1012.7  0.5  721  266           
09 05.05.13 320 (СЗ) >10 км    6/0 верхняя 
[Ci fib]
+26.2 +7.7 31 +26  1012.1  0.1  721  264           
12 05.05.13 320 (СЗ) >10 км    6/0 верхняя 
[Ci fib]
+26.1 +4.1 24 +26  1012.1  721  265           
15 05.05.13 320 (СЗ) >10 км    3/0 верхняя 
[Ci fib]
+23.9 +6.3 32 +24  1012.5  721  266    +26.6       
18 05.05.13 280 (З) >10 км    3/0 верхняя 
[Ci fib]
+18.4 +8.9 54 +19  1014.6  1.1  722  271           
21 05.05.13 290 (З) >10 км    ясно 
+20 +6.5 41 +20  1014.5  0.2  722  270           
00 06.05.13 280 (З) >10 км    ясно 
+18.9 +7.1 46 +19  1014.5  -0.2  722  271           
03 06.05.13 270 (З) >10 км    6/0 верхняя 
[Ci fib]
+16.2 +10.6 69 +19  1015.7  0.8  723  273  +16.2        сухая 
06 06.05.13 260 (З) >10 км    6/0 верхняя 
[Ci fib]
+21.9 +11.5 52 +26  1015.6  0.8  723  268  +16.2         
09 06.05.13 280 (З) >10 км    6/0 верхняя 
[Ci fib]
+25.8 +10.2 37 +28  1015  0.1  723  264           
12 06.05.13 310 (СЗ) 6{13}  >10 км    6/3 600 м верхняя 
[Cu med, cong|Ci fib]
+25.4 +11.3 41 +29  1014.4  -0.5  723  264           
15 06.05.13 310 (СЗ) 5{10}  >10 км    6/3 1000 м кучево-дожд., верхняя 
[Cb calv|Ci fib]
+23.7 +14.4 56 +32  1014.4  -0.3  723  265    +26.5       
18 06.05.13 330 (СЗ) >10 км  зарница{ливн. осадки}  6/4 600 м кучево-дожд., средняя 
[Cb cap|Ac trans]
+19.9 +11.7 59 +25  1016.4  1.3  724  270           
21 06.05.13 300 (СЗ) >10 км  зарница  4/3 1000 м кучево-дожд., средняя 
[Cb cap|Ac trans]
+16.8 +10.4 66 +20  1017.9  0.8  724  273           
00 07.05.13 250 (З) >10 км    6/3 1000 м кучево-дожд., средняя 
[Cb calv|Ac trans]
+13.9 +7.9 67 +14  1019  0.5  725  276           
03 07.05.13 320 (СЗ) >10 км    3/0 средняя 
[Ac trans]
+15.3 +6.7 56 +16  1018.5  -0.2  724  275  +12.9        сухая 
06 07.05.13 340 (С) >10 км    6/0 средняя 
[Ac trans]
+17.8 +8.3 54 +18  1019.2  1.1  725  273           
09 07.05.13 020 (С) >10 км    5/5 600 м 
[Cu hum]
+22 +5 33 +22  1019  0.5  726  270           
12 07.05.13 020 (С) 5-10  >10 км    5/5 1000 м 
[Cu hum]
+22.1 +5.1 33 +22  1018.6  -0.4  725  270           
15 07.05.13 020 (С) 6-10  >10 км    3/3 1000 м 
[Sc diur, vesp]
+19.4 +3.7 35 +20  1019.5  0.4  726  272    +22.3       
18 07.05.13 040 (СВ) >10 км    1/0 средняя 
[Ac trans]
+13.9 +0.9 41 +14  1022  1.3  727  278           
21 07.05.13 060 (СВ) >10 км    3/0 средняя 
[Ac trans]
+10.1 +1.7 56 +10  1023  0.2  727  282           
00 08.05.13 090 (В) >10 км    1/0 средняя 
[Ac trans]
+8.2 +2 65 +7  1022.8  -0.5  726  284           
03 08.05.13 100 (В) >10 км    ясно 
+9.9 +3.2 63 +9  1022.8  0.4  727  282  +7.2        сухая 
06 08.05.13 100 (В) 8-11{11}  >10 км    ясно 
+16.5 +4.5 45 +16  1022.2  0.6  727  276           
09 08.05.13 090 (В) 8-12{12}  >10 км    ясно 
+19.2 +5.1 39 +19  1021.1  -0.6  727  273           
12 08.05.13 080 (В) 7-12{14}  >10 км    ясно 
+20.5 +3.4 32 +21  1019.1  -1.6  725  271           
15 08.05.13 080 (В) 8-11{13}  >10 км    ясно 
+18.3 +0.6 30 +18  1018.9  -0.6  725  274    +20.7       
18 08.05.13 080 (В) 6{11}  >10 км    ясно 
+13.6 +0.4 40 +13  1020.6  0.8  726  278           
21 08.05.13 080 (В) >10 км    ясно 
+8.8 +1.8 61 +8  1021.8  0.2  726  283           
00 09.05.13 090 (В) >10 км    ясно 
+7.4 +4.8 84 +7  1021.8  -0.2  726  284           
03 09.05.13 100 (В) >10 км    1/0 средняя 
[Ac trans]
+9.8 +5.9 77 +9  1021.4  -0.2  726  281  +6.8        сухая 
06 09.05.13 110 (В) 8-12{12}  >10 км    3/0 верхняя 
[Ci fib]
+17.5 +2.8 37 +17  1020.9  0.8  726  275           
09 09.05.13 080 (В) 8-13{14}  >10 км    5/0 верхняя 
[Ci fib]
+20.6 +2.2 29 +21  1019.8  -0.4  726  272           
12 09.05.13 080 (В) 7-12{13}  >10 км    6/0 верхняя 
[Ci fib]
+21.6 +2.8 29 +22  1018.8  -0.9  725  270           
15 09.05.13 090 (В) 7-10{13}  >10 км    4/0 верхняя 
[Ci fib]
+19.8 +1.7 30 +20  1018.4  -0.7  725  272    +22       
18 09.05.13 100 (В) 4{10}  >10 км    ясно 
+12.1 +2.1 50 +12  1020.4  0.5  725  279           
21 09.05.13 100 (В) >10 км    ясно 
+10.2 +0.6 51 +9  1020.7  0.1  725  282           
00 10.05.13 100 (В) >10 км    ясно 
+8.4 +0.4 57 +7  1019.9  -1  724  283           
03 10.05.13 080 (В) >10 км    ясно 
+10.2 +2.3 58 +9  1019.5  0.1  724  281  +5.9        сухая 
06 10.05.13 090 (В) 8-10{10}  >10 км    ясно 
+16.9 +4.1 43 +16  1018.7  0.5  725  274           
09 10.05.13 080 (В) 9-13{14}  >10 км    1/0 верхняя 
[Ci fib]
+20.4 +4.1 34 +20  1017.2  -0.8  724  271           
12 10.05.13 090 (В) 10-15{16}  >10 км    1/0 верхняя 
[Ci sp]
+22.6 +3.2 28 +23  1015.5  -1.2  723  269           
15 10.05.13 100 (В) 9-13  >10 км    3/0 верхняя 
[Ci fib]
+20.8 +3.2 31 +21  1014.8  -1  722  270    +22.6       
18 10.05.13 090 (В) 7{13}  >10 км    3/0 верхняя 
[Ci sp]
+15.4 +2 40 +15  1016.4  0.5  723  275           
21 10.05.13 100 (В) 5{10}  >10 км    ясно 
+10.9 +3.2 59 +10  1017.2  723  280           
00 11.05.13 090 (В) >10 км    ясно 
+7.8 +3.5 74 +6  1016.8  -0.9  722  282           
03 11.05.13 090 (В) >10 км    3/0 верхняя 
[Ci fib]
+8.4 +4.8 78 +7  1015.4  -1.2  721  281  +5        сухая 
06 11.05.13 090 (В) 7-10{10}  >10 км    3/0 верхняя 
[Ci fib]
+14.9 +6.9 59 +14  1014.2  0.1  721  274           
09 11.05.13 090 (В) 9-13{15}  >10 км    3/0 верхняя 
[Ci fib]
+20.4 +6.7 41 +20  1012.6  -0.6  721  269           
12 11.05.13 100 (В) 10-14{15}  >10 км    3/0 верхняя 
[Ci fib]
+23.2 +5.8 32 +23  1010.2  -1.8  720  266           
15 11.05.13 090 (В) 10-13  >10 км    8/0 верхняя 
[Ci fib]
+21.2 +4.8 34 +21  1008.8  -1.7  718  268    +23.3       
18 11.05.13 090 (В) 6{13}  >10 км    6/0 верхняя 
[Ci fib]
+15.4 +5.4 51 +15  1010.1  0.2  718  273           
21 11.05.13 090 (В) 7{11}  >10 км    3/0 верхняя 
[Ci fib]
+12 +5.8 66 +11  1010  -0.7  718  276           
00 12.05.13 110 (В) 6-10{13}  >10 км    8/5 300 м средняя 
[Sc|Ac trans]
+10.4 +7.7 83 +9  1008.3  -1.8  717  277           
03 12.05.13 110 (В) >10 км    10/8 200 м средняя 
[St|Ac und]
+10.7 +8.9 89 +10  1007.3  -0.8  716  276  +9.1        сухая 
06 12.05.13 110 (В) 8-12{13}  >10 км    10/8 200 м 
[St]
+11.8 +9.6 86 +12  1007.4  0.2  716  275           
09 12.05.13 130 (ЮВ) 7-10{12}  >10 км    10/5 600 м средняя 
[Sc|Ac und]
+14.9 +10.3 74 +16  1007.6  0.8  717  272           
12 12.05.13 170 (Ю) >10 км  {дождь}  10/6 600 м кучево-дожд., средняя 
[Cb cap|Ac trans]
+19.3 +11 59 +23  1006.1  -0.6  716  267           
15 12.05.13 100 (В) >10 км    9/5 1000 м кучево-дожд., средняя 
[Cb calv|Ac trans]
+19.3 +9.8 54 +22  1006.3  0.1  716  268    +20.6       
18 12.05.13 080 (В) >10 км    10/5 1000 м кучево-дожд., средняя 
[Cb calv|Ac und]
+16.8 +8.8 59 +17  1007.5  0.7  717  270           
21 12.05.13 060 (СВ) >10 км    9/3 1000 м кучево-дожд., средняя 
[Cb calv|Ac trans]
+12 +6.3 68 +12  1008.1  -0.3  717  275           
00 13.05.13 120 (ЮВ) >10 км    3/0 средняя 
[Ac As]
+10.4 +6.7 78 +10  1008.1  0.7  716  277           
03 13.05.13 130 (ЮВ) >10 км    6/3 1000 м средняя 
[Sc|Ac trans]
+13 +9.6 80 +15  1007.7  0.2  716  274  +9.7        сухая 
06 13.05.13 250 (З) >10 км    6/3 600 м средняя 
[Cu hum|Ac trans]
+19.2 +12.8 66 +26  1006.7  0.1  717  267           
09 13.05.13 290 (З) >10 км    8/6 900 м кучево-дожд., верхняя 
[Cb calv|Ci fib]
+21.6 +11.7 53 +26  1006  -0.3  716  265           
12 13.05.13 310 (СЗ) >10 км  гроза без осадков{ливн. осадки}  8/5 600 м кучево-дожд., средняя 
[Cb calv|Ac trans]
+18.1 +12.3 69 +23  1005.9  -0.6  716  268           
15 13.05.13 тихо ()   >10 км  {гроза}  8/5 600 м кучево-дожд., средняя 
[Cb calv|Ac trans]
+18.8 +11.4 62 +23  1005.3  -0.5  716  268    +22.9       
18 13.05.13 250 (З) >10 км  слаб. ливневой дождь{гроза}  9/4 1000 м кучево-дожд., средняя 
[Cb cap|Ac trans]
+16.5 +14 85 +25  1006.5  0.9  716  269           
21 13.05.13 170 (Ю) >10 км  {ливн. осадки}  4/0 средняя 
[Ac trans]
+14.7 +12.8 88 +22  1006.7  -0.2  716  271           
00 14.05.13 360 (С) >10 км    ясно 
+13.8 +12.5 92 +21  1006.3  -0.5  716  272           
03 14.05.13 110 (В) >10 км    3/0 средняя 
[Ac trans]
+14.8 +12.6 87 +22  1006.4  -0.5  716  271  +10.5    0.5    влажная 
06 14.05.13 060 (СВ) >10 км    3/0 средняя, верхняя 
[Ac trans|Ci fib]
+21.5 +13 58 +28  1005  -0.2  716  265           
09 14.05.13 040 (СВ) >10 км    6/3 600 м верхняя 
[Cu hum|Ci]
+24.8 +12.3 46 +30  1003.6  -0.8  715  262           
12 14.05.13 050 (СВ) >10 км    6/6 600 м кучево-дожд. 
[Cb calv]
+25.3 +10.2 39 +28  1002.3  -1.2  714  262           
15 14.05.13 060 (СВ) >10 км    10/3 1500 м кучево-дожд., средняя 
[Cb cap|Ac und]
+23.2 +11.1 46 +27  1002.6  714  263    +26.9       
18 14.05.13 250 (З) 7-10{11}  >10 км  зарница  8/5 1000 м кучево-дожд., средняя 
[Cb calv|Ac trans]
+16.8 +12.1 74 +21  1005.3  1.5  715  269           
21 14.05.13 300 (СЗ) 4{10}  >10 км    4/0 средняя, верхняя 
[Ac trans|Ci fib]
+15.5 +11.4 77 +19  1005  -0.5  715  270           
00 15.05.13 240 (ЮЗ) >10 км    6/0 средняя 
[Ac trans]
+14.3 +10.9 80 +18  1005.6  0.4  715  272           
03 15.05.13 240 (ЮЗ) >10 км    6/4 1000 м кучево-дожд., средняя 
[Cb calv|Ac trans]
+14.8 +11.6 81 +19  1006.8  1.2  716  271  +13.7        сухая 
06 15.05.13 240 (ЮЗ) >10 км  гроза без осадков  9/5 1000 м кучево-дожд., средняя 
[Cb calv|Ac trans]
+18 +12.1 68 +23  1007.5  1.3  717  269           
09 15.05.13 290 (З) >10 км  {гроза, ливн. осадки}  8/4 1000 м кучево-дожд., средняя 
[Cb calv|Ac trans]
+20.8 +12.5 59 +26  1007.8  1.3  718  266           
12 15.05.13 310 (СЗ) >10 км  {гроза, ливн. осадки}  9/5 1000 м кучево-дожд., средняя 
[Cb calv|Ac trans]
+20.3 +12.6 61 +26  1007.5  -0.4  717  267           
15 15.05.13 290 (З) >10 км    4/3 1000 м кучево-дожд., средняя 
[Cb calv|Ac trans]
+21 +13.7 63 +29  1007.4  717  266    +21.2  0.3     
18 15.05.13 270 (З) 5{10}  >10 км  гроза без осадков  6/4 600 м кучево-дожд., средняя 
[Cb calv|Ac trans]
+16.3 +14 86 +24  1008.7  0.5  718  270           
21 15.05.13 280 (З) >10 км  слаб. ливневой дождь, в посл. час гроза  10/6 600 м кучево-дожд., средняя 
[Cb calv|Ac und]
+15.5 +14.3 93 +24  1008.8  0.1  718  271           
00 16.05.13 280 (З) 6{11}  >10 км  {гроза, ливн. осадки}  10/6 240 м кучево-дожд., средняя 
[Cb cap|Ac und]
+15.6 +14.6 94 +24  1008.5  -0.3  717  270           
03 16.05.13 270 (З) >10 км    10/6 200 м кучево-дожд., средняя 
[Cb calv|Ac und]
+15.1 +14.1 94 +22  1009.9  1.2  718  271  +14.7      влажная 
06 16.05.13 260 (З) 4000 м  ливневой дождь, в посл. час гроза  10/8 270 м кучево-дожд., средняя 
[Cb cap|Ac und]
+14.6 +13.7 94 +22  1010.9  0.8  719  272  +13.7         
09 16.05.13 260 (З) 6{11}  >10 км  {ливн. осадки}  10/8 420 м кучево-дожд., средняя 
[Cb calv|Ac und]
+16.4 +13.8 85 +24  1011.5  0.9  720  271           
12 16.05.13 260 (З) 7-10{11}  >10 км  {ливн. осадки}  8/5 300 м кучево-дожд., средняя 
[Cb calv|Ac trans]
+18.3 +13.8 75 +26  1010.6  -0.5  719  269           
18 16.05.13 280 (З) 5{10}  >10 км    8/5 600 м кучево-дожд., средняя 
[Cb calv|Ac trans]
+16.2 +14.3 88 +25  1011.7  1.1  720  271           
21 16.05.13 280 (З) 7-10{11}  10 км  слаб. ливневой дождь  10/8 240 м кучево-дожд., средняя 
[Cb cap|Ac und]
+15.4 +14.4 94 +24  1011.5  -0.4  720  271           
00 17.05.13 250 (З) 5{11}  10 км  {ливн. осадки}  10/6 270 м кучево-дожд., средняя 
[Cb calv|Ac und]
+15.1 +13.8 92 +23  1012.1  0.5  720  272           
03 17.05.13 260 (З) 10 км    10/8 200 м кучево-дожд., средняя 
[Cb calv|Ac und]
+14.9 +13.7 92 +22  1012.9  0.7  720  272  +14.8      влажная 
06 17.05.13 270 (З) 9-12{12}  >10 км    10/8 360 м кучево-дожд., средняя 
[Cb calv|Ac und]
+17.5 +13.7 78 +24  1012.7  0.3  721  270           
09 17.05.13 280 (З) 7-10{12}  >10 км    8/5 600 м кучево-дожд., средняя 
[Cb calv|Ac trans]
+19.8 +13.7 68 +27  1013.1  0.8  721  268           
12 17.05.13 300 (СЗ) 5{10}  >10 км    8/5 600 м кучево-дожд., средняя 
[Cb calv|Ac trans]
+20.5 +13.9 66 +28    0.1  721  268           
15 17.05.13 280 (З) >10 км    4/3 600 м кучево-дожд., средняя 
[Cb calv|Ac trans]
+19.5 +14.4 72 +29    -0.6  721  268    +21.7       
18 17.05.13 280 (З) >10 км    3/0 средняя 
[Ac trans]
+16.2 +14.5 90 +26  1014.6  1.3  722  272           
21 17.05.13 250 (З) >10 км    9/0 средняя 
[Ac trans]
+15.4 +14.2 93 +24  1014.8  0.1  722  272           
00 18.05.13 190 (Ю) 10 км    9/5 600 м средняя 
[Sc diur, vesp|Ac trans]
+14.9 +14.2 96 +24  1014.4  -0.5  722  273           
03 18.05.13 320 (СЗ) 10 км  слаб. дождь  10/10 200 м 
[Frnb|Ns]
+14.9 +13.5 91 +22  1014.5  -0.1  722  273  +14.7         
06 18.05.13 300 (СЗ) 4000 м  слаб. дождь  10/6 600 м средняя 
[Sc|Ac und]
+15.2 +13.5 90 +22  1014.8  0.4  722  273  +14.6         
09 18.05.13 300 (СЗ) >10 км  в посл. час ливневой дождь  10/4 600 м кучево-дожд., средняя 
[Cb cap|Ac und]
+15.5 +13.1 86 +21  1015  0.1  722  273           
12 18.05.13 280 (З) >10 км  {ливн. осадки}  6/3 1000 м средняя 
[Sc diur, vesp|Ac trans]
+20.3 +13.7 66 +28  1012.8  -1.2  721  268           
15 18.05.13 300 (СЗ) >10 км    6/1 600 м кучево-дожд., средняя, верхняя 
[Cb calv|Ac trans|Ci fib]
+19.3 +13.2 68 +27  1012.9  -0.1  721  269    +20.9     
18 18.05.13 300 (СЗ) >10 км  гроза без осадков  4/3 1000 м кучево-дожд., средняя 
[Cb calv|Ac lent]
+15.3 +10.6 74 +19  1014.1  -0.1  721  273           
21 18.05.13 290 (З) >10 км    3/3 1000 м кучево-дожд. 
[Cb calv]
+15.9 +11.5 75 +20  1013.5  -0.5  721  272           
00 19.05.13 300 (СЗ) >10 км  в посл. час гроза{ливн. осадки}  6/3 1000 м кучево-дожд., средняя 
[Cb cap|Ac cuf]
+14.2 +12.2 88 +19  1013.5  -0.3  721  274           
03 19.05.13 330 (СЗ) >10 км    10/4 1000 м средняя 
[Sc|Ac und]
+14.6 +12.6 88 +21  1014  0.6  721  273  +13.5      влажная 
06 19.05.13 300 (СЗ) >10 км    9/3 1000 м средняя 
[Sc diur, vesp|Ac trans]
+17.4 +14 80 +26  1014  0.5  722  270           
09 19.05.13 330 (СЗ) >10 км    9/4 600 м средняя 
[Cu hum|Ac trans]
+20.4 +14.8 70 +30  1014  0.5  722  268           
12 19.05.13 070 (В) >10 км    8/4 600 м кучево-дожд., средняя 
[Cb calv|Ac trans]
+23 +9.5 42 +24  1012.8  -0.8  721  266           
15 19.05.13 090 (В) >10 км    8/3 1000 м кучево-дожд., средняя 
[Cb calv|Ac trans]
+19.5 +9.7 53 +22  1013.7  0.3  722  270    +23.5       
18 19.05.13 140 (ЮВ) >10 км    6/0 средняя 
[Ac trans]
+14.8 +7.6 62 +16  1015.9  1.2  722  275           
21 19.05.13 110 (В) >10 км    3/0 средняя 
[Ac trans]
+13.6 +5.6 58 +14  1016.1  722  276           
00 20.05.13 080 (В) >10 км    ясно 
+10.7 +6.1 73 +10  1017.5  0.8  723  279           
03 20.05.13 120 (ЮВ) >10 км    3/0 средняя 
[Ac trans]
+13.5 +5 56 +14  1017.8  0.8  724  277  +10.3        влажная 
06 20.05.13 090 (В) >10 км    ясно 
+19.3 +6.7 44 +20  1017.9  1.2  725  272           
09 20.05.13 070 (В) 8-11{14}  >10 км    3/3 600 м верхняя 
[Cu hum|Ci fib]
+22.1 -0.6 22 +22  1017.5  725  270           
12 20.05.13 080 (В) 6-10{14}  >10 км    4/3 600 м верхняя 
[Cu hum|Ci fib]
+22.8 +0.6 23 +23  1016.1  -1.1  724  269           
15 20.05.13 080 (В) 6{12}  >10 км    5/3 1000 м верхняя 
[Sc diur, vesp|Ci fib]
+21.2 +3.5 31 +21  1015.4  -0.9  723  270    +23       
18 20.05.13 080 (В) >10 км    3/0 верхняя 
[Ci fib]
+14.4 +4.9 53 +14  1016.6  -0.1  723  276           
21 20.05.13 070 (В) >10 км    ясно 
+11.7 +4.9 63 +11  1017.5  0.4  723  279           
00 21.05.13 110 (В) >10 км    ясно 
+10.7 +7.8 82 +10  1017  -0.6  723  279           
03 21.05.13 120 (ЮВ) >10 км    ясно 
+13 +8.9 76 +14  1016.6  723  276  +9.9        сухая 
06 21.05.13 110 (В) >10 км    ясно 
+18 +9.4 57 +19  1015.7  723  272           
09 21.05.13 110 (В) >10 км    3/3 600 м 
[Cu hum]
+22.5 +9.6 44 +24  1014  -0.9  722  267           
12 21.05.13 330 (СЗ) >10 км    3/3 600 м 
[Cu hum]
+24 +7.2 34 +24  1012.4  -1.2  721  266           
18 21.05.13 290 (З) >10 км    ясно 
+19 +6.5 44 +20  1013  0.6  721  270           
21 21.05.13 280 (З) >10 км    ясно 
+13.9 +8 68 +15  1014.1  0.2  721  275           
00 22.05.13 300 (СЗ) >10 км    ясно кучево-дожд., средняя, верхняя 
[Cb cap|Ac inh|Cs]
+14.3 +7.7 64 +169  1013.9  75  26           
03 22.05.13 300 (СЗ) >10 км    ясно 
+18.1 +9.2 56 +20  1013.3  -0.2  721  271  +10.7        сухая 
06 22.05.13 300 (СЗ) >10 км    3/3 600 м 
[Cu hum]
+22.4 +5.2 33 +22  1013.4  0.7  722  268           
09 22.05.13 340 (С) >10 км    3/3 600 м 
[Cu hum]
+23.8 +6 32 +24  1013.2  722  266           
12 22.05.13 350 (С) >10 км    3/3 600 м 
[Cu hum]
+25.2 +6.6 30 +25  1012.3  -0.5  721  265           
15 22.05.13 020 (С) >10 км    1/1 1000 м 
[Sc diur, vesp]
+24.8 +8 34 +25  1011.8  -0.6  721  265    +25.7       
18 22.05.13 310 (СЗ) >10 км    3/0 верхняя 
[Ci fib]
+20.1 +9.5 50 +21  1013.5  0.9  722  269           
21 22.05.13 140 (ЮВ) >10 км    ясно 
+16.7 +8.7 59 +18  1014.2  0.1  722  272           
00 23.05.13 220 (ЮЗ) >10 км    ясно 
+17.3 +8.5 56 +19  1013.3  -0.8  721  272           
03 23.05.13 100 (В) >10 км    ясно 
+21.1 +11 52 +24  1012.9  0.3  721  268  +14.4        сухая 
06 23.05.13 110 (В) >10 км    ясно 
+23.7 +8.3 37 +24  1013.3  0.7  722  266           
09 23.05.13 100 (В) 4{10}  >10 км    ясно 
+26.5 +4.5 24 +27  1012.8  0.1  722  264           
12 23.05.13 110 (В) >10 км    ясно 
+27.8 +5.5 24 +28  1012  -0.6  721  263           
15 23.05.13 110 (В) >10 км    ясно 
+25.8 +5.2 27 +26  1011.9  -0.4  721  265    +28       
18 23.05.13 130 (ЮВ) >10 км    ясно 
+18.5 +6 44 +19  1013.5  0.3  721  271           
21 23.05.13 120 (ЮВ) >10 км    3/0 верхняя 
[Ci fib]
+17.1 +3.7 41 +18  1013.2  -0.6  721  273           
00 24.05.13 110 (В) >10 км    3/0 верхняя 
[Ci fib]
+15 +5.2 52 +15  1011.9  -1.5  720  274           
03 24.05.13 120 (ЮВ) >10 км    4/0 
+18.1 +10.3 60 +21  1011.4  0.2  720  270  +14.1        сухая 
06 24.05.13 150 (ЮВ) >10 км    8/0 верхняя 
[Ci fib]
+25.1 +10.8 41 +28  1010.3  0.1  720  264           
09 24.05.13 120 (ЮВ) 4{10}  >10 км    8/0 верхняя 
[Ci fib]
+29.1 +11 33 +32  1009.4  -0.2  720  260           
12 24.05.13 100 (В) >10 км    8/0 средняя, верхняя 
[Ac trans|Ci fib]
+28.7 +12.4 37 +34  1009  -0.4  719  260           
15 24.05.13 110 (В) 6{11}  >10 км    10/3 1000 м кучево-дожд., средняя 
[Cb calv|Ac und]
+25.7 +13.1 46 +32  1007.9  -1.5  718  262    +29.6       
18 24.05.13 110 (В) >10 км    10/3 1000 м средняя 
[Sc diur, vesp|Ac und]
+22.1 +8.3 41 +22  1007.6  -1  718  266           
21 24.05.13 120 (ЮВ) >10 км    9/3 1000 м средняя 
[Sc diur, vesp|Ac trans]
+19.4 +7.6 46 +20  1007.1  -0.9  717  268           
00 25.05.13 270 (З) 6{11}  >10 км    9/3 1000 м кучево-дожд., средняя 
[Cb calv|Ac trans]
+19.6 +11.8 61 +25  1009.2  2.1  718  268           
03 25.05.13 180 (Ю) >10 км  слаб. ливневой дождь  10/5 600 м кучево-дожд., средняя 
[Cb cap|Ac und]
+17.8 +13.7 77 +26  1009.6  -0.1  719  269  +17.2    0.5     
06 25.05.13 140 (ЮВ) >10 км  осадки на расстоянии{ливн. осадки}  9/6 800 м кучево-дожд., средняя, верхняя 
[Cb calv|Ac trans|Ci fib]
+18 +15.5 85 +30  1011.1  1.5  720  269  +16.5         
09 25.05.13 310 (СЗ) >10 км    9/5 600 м кучево-дожд., средняя 
[Cb calv|Ac trans]
+24.6 +11.2 43 +28  1011.5  1.4  721  264           
12 25.05.13 130 (ЮВ) >10 км  гроза без осадков{ливн. осадки}  8/5 600 м кучево-дожд., средняя 
[Cb calv|Ac trans]
+18.9 +14.3 75 +28  1013.1  0.6  721  269           
15 25.05.13 230 (ЮЗ) >10 км    3/0 верхняя 
[Ci fib]
+22.3 +13 56 +29  1012.2  -0.3  721  266    +25     
18 25.05.13 210 (ЮЗ) >10 км    5/5 600 м кучево-дожд. 
[Cb calv]
+18.7 +13.1 70 +26  1013.6  0.8  722  269           
21 25.05.13 300 (СЗ) >10 км    8/1 600 м кучево-дожд., средняя 
[Cb calv|Ac trans]
+18.5 +13.2 71 +27  1013.4  -0.3  721  270           
00 26.05.13 310 (СЗ) >10 км    9/1 600 м кучево-дожд., средняя 
[Cb calv|Ac trans]
+17 +12.2 73 +22  1013.2  -0.5  721  271           
03 26.05.13 320 (СЗ) >10 км    10/0 средняя 
[Ac und]
+16.6 +10.9 69 +20  1013.7  0.4  721  272  +16.3        сухая 
06 26.05.13 130 (ЮВ) >10 км    10/3 1000 м средняя 
[Sc|Ac und]
+17.7 +12.3 71 +24  1014.4  0.9  722  271           
Время (UTC), дата Ветер
(°,м/с) 
Видим.   Явления Облачность Т
(°С)
Тd
(°С)
f(%) Тe
(°С)
Pmin
(гПа)
dP
(гПа)
Po
(мм)
O2
(г/м3)
Тmin Tmax R s Состояние
почвы